Change the Weather History Date:

Wednesday, July 10, 2013

  Actual Average Record
Temperature  
Mean Temperature 64 °F -  
Max Temperature 77 °F 72 °F - ()
Min Temperature 51 °F 50 °F - ()
Degree Days  
Heating Degree Days 1    
Growing Degree Days 14 (Base 50)    
Moisture  
Dew Point 50 °F    
Average Humidity 64    
Maximum Humidity 94    
Minimum Humidity 19    
Precipitation  
Precipitation 0.00 in - - ()
Sea Level Pressure  
Sea Level Pressure 30.21 in    
Wind  
Wind Speed 3 mph ()    
Max Wind Speed 15 mph    
Max Gust Speed -    
Visibility 7.1 miles    
Events Rain , Thunderstorm    
T = Trace of Precipitation, MM = Missing Value Source: Averaged Metar Reports

Daily Weather History Graph

Daily Weather History Graph

Search for Another Location

Airport or City:

Trip Planner

Search our weather history database for the weather conditions in past years. The results will help you decide how hot, cold, wet, or windy it might be!

Date:

Astronomy

Jul. 10, 2013 Rise Set
Actual Time 7:01 AM CDT 8:14 PM CDT
Civil Twilight 6:37 AM CDT 8:38 PM CDT
Nautical Twilight 6:09 AM CDT 9:06 PM CDT
Astronomical Twilight 5:39 AM CDT 9:36 PM CDT
Moon 9:00 AM CDT (7/10) 9:53 PM CDT (7/10)
Length of Visible Light 14h 00m
Length of Day
13h 12m
Waxing Crescent, 5% of the Moon is Illuminated
Jul 10
Waxing Crescent
Jul 15
First Quarter
Jul 22
Full
Jul 29
Last Quarter
Aug 6
New

Hourly Weather History & Observations

Time (CDT) Temp. Dew Point Humidity Pressure Visibility Wind Dir Wind Speed Gust Speed Precip Events Conditions
12:45 AM 60 °F 54 °F 76% 29.88 in 3 mi Calm Calm - -   Partly Cloudy
3:45 AM 56 °F 52 °F 82% 29.94 in 3 mi NE 2.2 mph - -   Scattered Clouds
5:50 AM 53.6 °F 50.0 °F 88% 30.40 in 8.0 mi WSW 3.5 mph - N/A   Mostly Cloudy
6:43 AM 50.0 °F 48.2 °F 94% 30.39 in 8.0 mi NNW 3.5 mph - N/A   Partly Cloudy
6:45 AM - 51 °F % 29.98 in 3 mi Calm Calm - -   Scattered Clouds
6:50 AM 56 °F 52 °F 82% 29.93 in 3 mi Calm Calm - -   Mostly Cloudy
7:47 AM 51.8 °F 48.2 °F 88% 30.42 in 5.0 mi NNW 5.8 mph - N/A   Scattered Clouds
8:46 AM 57.2 °F 51.8 °F 82% 30.42 in 5.0 mi NNE 3.5 mph - N/A   Scattered Clouds
9:42 AM 62.6 °F 51.8 °F 68% 30.43 in 7.0 mi NNE 4.6 mph - N/A   Scattered Clouds
9:50 AM 64 °F 54 °F 61% 29.96 in 3 mi WNW 2.2 mph - -   Haze
10:47 AM 64.4 °F 51.8 °F 64% 30.43 in 7.0 mi North 3.5 mph - N/A   Scattered Clouds
11:45 AM 66.2 °F 51.8 °F 60% 30.43 in 10.0 mi ENE 5.8 mph - N/A   Mostly Cloudy
12:41 PM 69.8 °F 48.2 °F 46% 30.41 in 10.0 mi East 8.1 mph - N/A   Mostly Cloudy
12:50 PM 72 °F 47 °F 31% 29.98 in 6 mi North 6.7 mph - -   Haze
1:40 PM 71.6 °F 50.0 °F 46% 30.39 in 10.0 mi SE 8.1 mph - N/A   Mostly Cloudy
2:45 PM 69.8 °F 51.8 °F 53% 30.37 in 10.0 mi East 10.4 mph - N/A Thunderstorm Thunderstorm
3:40 PM 75 °F 41 °F 19% 29.83 in 12 mi SE 2.2 mph - -   Partly Cloudy
3:45 PM 74 °F 43 °F 22% 29.75 in 12 mi ESE 2.2 mph - -   Mostly Cloudy
3:48 PM 68.0 °F 48.2 °F 49% 30.33 in 6.0 mi ENE 4.6 mph - N/A   Mostly Cloudy
4:43 PM 71.6 °F 46.4 °F 41% 30.30 in 10.0 mi SSE 11.5 mph - N/A   Scattered Clouds
5:45 PM 71.6 °F 46.4 °F 41% 30.29 in 10.0 mi SSE 4.6 mph - N/A   Mostly Cloudy
6:40 PM 69 °F 45 °F 31% 29.67 in 12 mi SE 2.2 mph - -   Mostly Cloudy
6:41 PM 60.8 °F 50.0 °F 68% 30.31 in 10.0 mi NNE 15.0 mph - N/A Thunderstorm Thunderstorm
7:33 PM 57.2 °F 53.6 °F 88% 30.34 in 6.0 mi SE 5.8 mph - N/A Rain , Thunderstorm Thunderstorms and Rain
7:45 PM 59.0 °F 51.8 °F 77% 30.34 in 6.0 mi WSW 8.1 mph - N/A Rain , Thunderstorm Light Thunderstorms and Rain
8:46 PM 57.2 °F 53.6 °F 88% 30.35 in 6.0 mi NW 5.8 mph - N/A   Overcast
9:43 PM 57.2 °F 53.6 °F 88% 30.36 in 6.0 mi NNW 5.8 mph - N/A   Overcast
9:50 PM 62 °F 50 °F 56% 29.80 in 3 mi Calm Calm - -   Partly Cloudy
10:42 PM 57.2 °F 53.6 °F 88% 30.37 in 6.0 mi North 4.6 mph - N/A   Mostly Cloudy
11:42 PM 57.2 °F 53.6 °F 88% 30.39 in 7.0 mi Calm Calm - N/A   Mostly Cloudy